| time (UTC) | temp F | wind direction | speed MPH | gust MPH | rain 1hr in | rain 24hr in | rain mn in | humidity % | barometer mb |
| 20260502214518 | 72 | 112 | 4.0 | 13.0 | 0.00 | 0.00 | 0.00 | 16 | 1015.3 |
| 20260502213038 | 75 | 82 | 9.0 | 16.0 | 0.00 | 0.00 | 0.00 | 17 | 1015.5 |
| 20260502211519 | 74 | 84 | 6.0 | 12.0 | 0.00 | 0.00 | 0.00 | 21 | 1015.6 |
| 20260502210032 | 74 | 123 | 5.0 | 11.0 | 0.00 | 0.00 | 0.00 | 21 | 1015.9 |
| 20260502204517 | 71 | 108 | 5.0 | 10.0 | 0.00 | 0.00 | 0.00 | 21 | 1016.1 |
| 20260502203031 | 72 | 116 | 7.0 | 15.0 | 0.00 | 0.00 | 0.00 | 20 | 1016.1 |
| 20260502201536 | 73 | 118 | 8.0 | 14.0 | 0.00 | 0.00 | 0.00 | 20 | 1016.2 |
| 20260502200018 | 71 | 338 | 0.0 | 13.0 | 0.00 | 0.00 | 0.00 | 23 | 1016.3 |
| 20260502194515 | 72 | 78 | 7.0 | 15.0 | 0.00 | 0.00 | 0.00 | 24 | 1016.5 |
| 20260502193019 | 72 | 99 | 9.0 | 13.0 | 0.00 | 0.00 | 0.00 | 23 | 1016.5 |
| 20260502191519 | 71 | 86 | 7.0 | 14.0 | 0.00 | 0.00 | 0.00 | 25 | 1016.5 |
| 20260502190016 | 71 | 65 | 4.0 | 16.0 | 0.00 | 0.00 | 0.00 | 25 | 1016.7 |
| 20260502184520 | 69 | 34 | 6.0 | 13.0 | 0.00 | 0.00 | 0.00 | 26 | 1016.8 |
| 20260502183017 | 68 | 51 | 7.0 | 13.0 | 0.00 | 0.00 | 0.00 | 28 | 1017.0 |
| 20260502181521 | 67 | 66 | 7.0 | 16.0 | 0.00 | 0.00 | 0.00 | 29 | 1017.1 |
| 20260502163021 | 63 | 96 | 5.0 | 13.0 | 0.00 | 0.00 | 0.00 | 30 | 1017.0 |
| 20260502161518 | 61 | 65 | 6.0 | 11.0 | 0.00 | 0.00 | 0.00 | 32 | 1017.0 |
| 20260502151516 | 54 | 103 | 3.0 | 6.0 | 0.00 | 0.00 | 0.00 | 50 | 1017.0 |
| 20260502123020 | 48 | 196 | 0.0 | 0.0 | 0.00 | 0.00 | 0.00 | 52 | 1016.6 |
| 20260502121520 | 47 | 275 | 0.0 | 1.0 | 0.00 | 0.00 | 0.00 | 52 | 1016.6 |
| 20260502114520 | 46 | 275 | 1.0 | 3.0 | 0.00 | 0.00 | 0.00 | 55 | 1016.7 |
| 20260502113024 | 45 | 276 | 1.0 | 3.0 | 0.00 | 0.00 | 0.00 | 56 | 1016.7 |
| 20260502110020 | 51 | 109 | 3.0 | 8.0 | 0.00 | 0.00 | 0.00 | 43 | 1016.6 |
| 20260502104526 | 54 | 61 | 5.0 | 10.0 | 0.00 | 0.00 | 0.00 | 36 | 1016.5 |
| 20260502103015 | 55 | 74 | 6.0 | 12.0 | 0.00 | 0.00 | 0.00 | 35 | 1016.5 |
| 20260502101509 | 55 | 56 | 4.0 | 11.0 | 0.00 | 0.00 | 0.00 | 35 | 1016.6 |
| 20260502091516 | 56 | 36 | 8.0 | 15.0 | 0.00 | 0.00 | 0.00 | 36 | 1017.0 |
| 20260502071515 | 55 | 40 | 5.0 | 10.0 | 0.00 | 0.00 | 0.00 | 42 | 1017.6 |
| 20260502070035 | 53 | 64 | 4.0 | 8.0 | 0.00 | 0.00 | 0.00 | 45 | 1017.7 |
| 20260502064520 | 56 | 124 | 2.0 | 8.0 | 0.00 | 0.00 | 0.00 | 41 | 1017.7 |
| 20260502063026 | 57 | 59 | 5.0 | 12.0 | 0.00 | 0.00 | 0.00 | 40 | 1017.5 |
| 20260502061517 | 57 | 49 | 6.0 | 16.0 | 0.00 | 0.00 | 0.00 | 39 | 1017.4 |
| 20260502060032 | 57 | 53 | 7.0 | 14.0 | 0.00 | 0.00 | 0.00 | 39 | 1017.4 |
| 20260502054531 | 57 | 51 | 10.0 | 15.0 | 0.00 | 0.00 | 0.00 | 39 | 1017.3 |
| 20260502053020 | 57 | 44 | 6.0 | 14.0 | 0.00 | 0.00 | 0.00 | 40 | 1017.3 |
| 20260502051519 | 58 | 57 | 6.0 | 14.0 | 0.00 | 0.00 | 0.00 | 40 | 1017.3 |
| 20260502050022 | 58 | 55 | 9.0 | 15.0 | 0.00 | 0.00 | 0.00 | 40 | 1017.3 |
| 20260502044518 | 58 | 47 | 7.0 | 14.0 | 0.00 | 0.00 | 0.00 | 40 | 1017.2 |
| 20260502043018 | 58 | 24 | 6.0 | 13.0 | 0.00 | 0.00 | 0.00 | 41 | 1017.2 |
| 20260502041529 | 59 | 59 | 6.0 | 15.0 | 0.00 | 0.00 | 0.00 | 40 | 1017.0 |
| 20260502040037 | 60 | 32 | 7.0 | 15.0 | 0.00 | 0.00 | 0.00 | 39 | 1016.8 |
| 20260502034518 | 60 | 24 | 10.0 | 19.0 | 0.00 | 0.00 | 0.00 | 38 | 1016.6 |
| 20260502033028 | 61 | 34 | 7.0 | 17.0 | 0.00 | 0.00 | 0.00 | 36 | 1016.4 |
| 20260502031516 | 62 | 32 | 5.0 | 10.0 | 0.00 | 0.00 | 0.00 | 28 | 1016.3 |
| 20260502030020 | 62 | 80 | 5.0 | 11.0 | 0.00 | 0.00 | 0.00 | 28 | 1016.2 |
| 20260502024522 | 62 | 49 | 4.0 | 9.0 | 0.00 | 0.00 | 0.00 | 30 | 1016.1 |
| 20260502023028 | 63 | 46 | 3.0 | 7.0 | 0.00 | 0.00 | 0.00 | 31 | 1016.2 |
| 20260502021516 | 64 | 59 | 4.0 | 9.0 | 0.00 | 0.00 | 0.00 | 29 | 1016.2 |
| 20260502020016 | 65 | 59 | 3.0 | 9.0 | 0.00 | 0.00 | 0.00 | 27 | 1016.3 |
| 20260502014520 | 66 | 79 | 4.0 | 9.0 | 0.00 | 0.00 | 0.00 | 25 | 1016.5 |
| 20260502013028 | 66 | 73 | 3.0 | 10.0 | 0.00 | 0.00 | 0.00 | 24 | 1016.6 |
| 20260502011516 | 67 | 88 | 5.0 | 12.0 | 0.00 | 0.00 | 0.00 | 22 | 1016.7 |
| 20260502010026 | 67 | 90 | 6.0 | 10.0 | 0.00 | 0.00 | 0.00 | 21 | 1016.9 |
| 20260502004519 | 68 | 59 | 6.0 | 13.0 | 0.00 | 0.00 | 0.00 | 22 | 1017.2 |
| 20260502003015 | 69 | 49 | 8.0 | 14.0 | 0.00 | 0.00 | 0.00 | 21 | 1017.2 |
| 20260502001517 | 69 | 81 | 4.0 | 13.0 | 0.00 | 0.00 | 0.00 | 23 | 1017.3 |
| 20260502000020 | 69 | 61 | 6.0 | 12.0 | 0.00 | 0.00 | 0.00 | 23 | 1017.4 |
| 20260501234529 | 69 | 57 | 6.0 | 12.0 | 0.00 | 0.00 | 0.00 | 23 | 1017.5 |
| 20260501233020 | 69 | 91 | 8.0 | 15.0 | 0.00 | 0.00 | 0.00 | 23 | 1017.6 |
| 20260501231516 | 70 | 112 | 8.0 | 13.0 | 0.00 | 0.00 | 0.00 | 22 | 1017.9 |
| 20260501224522 | 69 | 45 | 5.0 | 11.0 | 0.00 | 0.00 | 0.00 | 22 | 1018.3 |
| 20260501223021 | 69 | 107 | 3.0 | 13.0 | 0.00 | 0.00 | 0.00 | 21 | 1018.5 |
| 20260501221522 | 70 | 76 | 4.0 | 12.0 | 0.00 | 0.00 | 0.00 | 23 | 1018.6 |
| 20260501220016 | 69 | 76 | 5.0 | 12.0 | 0.00 | 0.00 | 0.00 | 23 | 1018.9 |